ECMWFNIL_850_thetae_282.txt.gz
Theta_e
301 300 299 298 298 298 298 298 297 296 296 295 292 290 289 288 287 287 287 287 287 287 286 286 286 286 287 287 286 286 286 286 286 286 286 286 286 286 285 284 283 282
301 300 299 298 297 297 296 296 295 295 295 294 292 289 288 287 287 287 286 286 286 285 285 285 285 285 286 286 286 285 285 285 285 285 285 285 285 285 285 284 283 282
301 300 299 298 297 296 295 294 294 293 293 293 291 289 287 287 286 286 285 285 285 284 284 284 284 284 285 285 285 284 284 284 284 284 284 284 284 284 284 283 282 281
300 300 298 298 297 295 295 294 293 292 292 291 291 289 288 287 286 285 285 284 284 284 283 283 283 283 284 284 284 284 284 284 283 283 283 283 284 283 283 282 282 281
299 299 298 297 296 295 294 294 293 291 290 290 290 289 289 287 286 286 285 284 284 283 283 283 283 283 283 283 283 283 283 283 283 283 282 283 283 282 282 282 281 281
298 298 297 296 295 295 294 293 293 291 290 289 289 289 288 287 286 285 285 284 284 283 283 283 283 283 282 282 282 282 282 282 282 282 282 282 282 282 282 281 281 280
298 297 296 296 295 294 294 293 292 291 290 289 288 288 287 287 286 285 284 284 283 283 283 282 282 282 282 282 282 282 282 281 281 281 281 281 281 281 281 281 280 280
297 296 296 295 294 294 293 293 292 291 290 289 288 287 287 286 285 284 283 283 283 282 282 282 282 282 281 281 281 281 281 280 280 280 280 280 281 281 281 280 280 279
296 296 295 294 293 293 293 292 291 291 290 288 288 287 286 286 285 284 283 282 282 282 282 282 281 281 281 280 280 280 280 280 280 280 280 280 280 281 280 279 279 279
296 295 295 294 293 293 292 292 291 290 289 288 287 287 286 286 285 284 283 282 282 281 281 281 281 281 280 280 279 279 280 280 280 279 279 280 280 280 279 279 279 279
296 296 295 294 293 292 292 292 291 290 289 288 287 287 286 285 284 284 283 282 282 281 281 281 281 281 280 279 279 279 280 280 279 279 279 279 279 279 279 278 278 278
296 296 295 293 292 292 291 291 291 290 289 288 287 286 286 285 284 283 283 282 282 281 281 280 280 280 280 279 279 279 279 279 279 278 279 279 279 279 278 278 278 278
296 296 294 293 292 291 290 290 290 289 288 288 287 286 285 284 284 283 283 282 281 281 280 280 280 280 279 279 279 279 278 278 278 278 278 278 278 278 278 279 279 278
296 295 294 292 291 290 289 289 288 288 287 287 286 285 284 284 283 283 282 282 281 280 280 279 279 279 279 278 278 278 278 278 278 278 278 278 278 278 278 278 278 278
295 294 293 292 291 289 289 288 287 287 286 286 285 285 284 284 283 282 281 281 280 280 279 279 279 279 278 278 277 277 277 277 278 278 277 277 277 278 278 278 278 278
295 294 293 292 291 290 289 288 287 286 286 285 285 284 284 283 282 282 281 280 280 279 279 278 278 278 278 277 277 277 277 277 277 277 277 277 277 277 278 278 278 278
296 295 293 292 291 290 289 288 287 286 285 285 284 284 283 283 282 281 281 280 280 279 279 278 278 278 277 277 276 276 276 276 276 276 276 276 277 277 277 278 278 277
295 295 293 292 291 290 289 288 287 286 285 285 284 284 283 282 282 281 281 280 279 279 278 278 278 277 277 276 275 275 276 276 275 275 276 276 276 276 277 277 277 277
295 295 294 293 292 290 289 287 287 286 285 285 284 283 283 282 282 281 280 280 279 279 278 278 277 277 276 275 275 275 275 275 275 275 275 275 276 276 277 277 277 276
295 295 295 294 293 291 289 287 287 286 285 285 284 283 282 282 281 281 280 280 279 279 278 278 277 277 276 275 275 274 274 274 275 275 274 275 275 276 276 276 276 276
293 294 294 293 293 291 289 288 287 286 285 284 283 282 282 281 281 280 280 280 279 279 278 277 277 276 276 275 274 274 273 273 274 274 274 275 275 276 276 276 276 276
291 291 291 291 291 290 290 288 287 286 285 284 283 282 281 281 280 280 280 279 279 278 278 277 276 276 275 274 274 273 273 272 272 273 275 275 275 275 275 275 275 275
289 288 288 288 288 288 288 288 287 286 285 284 283 282 281 281 280 280 280 279 278 278 277 277 276 275 275 274 273 273 273 273 272 272 273 275 276 276 275 275 275 274
286 286 286 286 286 286 286 286 285 285 284 283 283 282 281 281 280 280 279 279 278 278 277 276 276 275 274 274 273 273 273 273 272 272 272 273 274 275 275 275 275 274
285 285 284 284 284 284 284 283 283 283 282 282 282 281 281 280 280 279 278 278 278 278 277 276 275 274 274 273 273 273 273 272 272 271 271 272 273 274 274 274 274 274
284 284 284 283 283 283 282 282 281 281 281 280 280 280 279 279 279 278 278 277 277 277 276 275 274 273 273 273 272 273 273 272 271 271 271 272 273 273 273 273 274 273

ECMWFNIL_850_thetae_288.txt.gz
Theta_e
300 300 300 301 301 302 303 304 305 305 306 306 306 305 305 305 304 304 303 302 301 302 302 301 300 299 297 295 293 290 288 287 287 287 287 287 287 287 288 289 289 288
301 301 301 301 302 302 303 303 304 304 305 305 304 304 304 304 303 302 301 300 300 301 301 300 300 298 297 296 294 291 289 287 287 287 287 286 286 286 287 288 288 287
300 301 301 301 301 302 302 301 301 301 302 302 302 302 302 301 301 300 299 298 298 299 300 299 299 297 296 294 293 290 288 287 287 286 286 286 286 286 286 286 287 287
300 300 301 301 300 300 300 299 299 299 299 299 299 299 299 298 298 298 298 297 297 297 297 297 298 297 295 292 290 289 288 287 286 286 286 285 285 285 285 285 285 286
299 299 300 299 299 299 299 298 298 298 297 297 297 297 296 296 296 296 297 296 296 296 295 295 296 296 295 292 289 287 287 286 286 286 285 285 285 284 284 284 284 285
299 299 299 299 299 299 298 298 298 297 296 296 295 295 294 294 294 294 295 295 295 294 294 294 294 294 295 293 289 287 286 286 286 285 285 285 284 284 284 283 283 284
299 299 299 299 299 298 298 298 297 296 296 294 294 294 293 293 293 293 293 293 293 292 292 293 293 293 293 292 290 288 286 285 285 285 285 284 284 284 283 283 283 283
299 299 299 299 299 299 299 299 298 297 295 294 293 293 292 292 291 291 291 291 291 291 291 292 292 292 291 291 290 288 286 285 285 285 285 284 284 283 283 283 283 282
298 298 298 298 298 298 298 298 297 296 294 293 292 291 290 290 290 290 290 290 290 290 290 290 290 290 290 290 289 288 286 285 284 284 284 284 284 284 283 283 282 282
297 297 297 296 296 296 296 295 294 293 292 291 291 290 289 289 288 288 288 289 289 289 289 289 288 288 288 288 288 288 287 286 284 284 283 283 283 283 283 282 282 282
296 295 294 294 294 294 293 293 292 292 291 290 290 289 288 288 287 287 288 288 288 288 287 287 287 287 287 287 287 287 286 286 285 284 283 283 282 282 282 282 281 281
295 294 293 293 292 292 292 292 291 291 290 290 289 289 288 288 287 287 287 287 287 287 286 286 285 285 285 285 286 286 285 285 285 284 284 283 282 282 281 281 281 281
294 293 293 292 292 291 291 291 291 291 290 290 289 288 288 287 287 287 287 286 286 286 285 285 284 284 284 284 284 284 284 284 284 284 283 283 282 282 281 281 281 280
294 293 293 292 292 291 291 290 290 290 290 289 289 288 288 287 287 286 286 285 285 284 284 284 283 283 283 283 283 284 284 284 283 283 283 283 282 282 281 281 280 280
294 293 292 292 291 291 291 290 290 289 288 288 287 287 287 287 287 286 285 285 284 284 283 283 282 282 282 282 282 283 283 283 283 283 283 282 282 282 281 280 280 280
293 292 292 291 291 290 290 290 289 289 288 288 287 286 286 286 286 286 285 285 285 284 284 283 282 282 282 282 281 281 282 282 282 282 282 282 281 281 280 280 280 279
291 292 291 291 290 290 289 289 289 288 288 287 287 286 286 285 285 285 284 284 284 284 284 283 283 282 282 281 281 281 281 281 281 281 281 280 280 280 280 279 279 279
289 289 290 290 290 290 290 289 289 288 288 287 287 286 285 285 284 284 284 284 283 283 283 283 283 282 282 281 280 280 280 280 280 280 280 279 279 279 279 279 278 278
286 286 287 287 288 288 289 289 289 288 288 287 287 286 285 284 284 284 284 283 283 282 283 282 282 282 281 280 280 279 279 279 279 279 279 279 278 278 278 278 278 278
284 284 284 285 285 286 286 287 287 288 288 287 287 286 285 285 284 284 283 282 282 282 282 282 282 282 281 280 279 278 278 278 278 278 278 278 278 278 277 277 277 277
282 282 283 283 283 283 284 284 285 285 286 285 285 285 285 285 285 284 283 283 281 281 280 281 281 281 280 279 279 278 277 277 277 277 277 277 277 277 277 277 276 276
281 281 281 281 282 282 282 282 282 283 283 283 283 284 284 284 284 284 283 283 282 281 280 280 280 279 279 279 278 278 277 276 276 276 276 276 276 276 276 276 276 275
279 280 280 280 280 280 281 281 281 281 281 281 281 282 283 283 282 282 282 282 282 281 280 280 280 279 278 278 277 277 276 276 275 275 275 275 275 275 275 275 275 275
278 278 279 279 279 279 279 279 279 279 279 279 279 280 280 281 280 281 281 281 281 281 280 280 280 280 278 277 277 276 275 275 275 275 275 274 274 274 274 274 274 274
277 277 277 277 278 278 278 278 278 278 278 278 278 278 278 279 279 279 280 280 279 279 279 278 279 279 277 277 276 275 275 274 274 274 274 274 274 273 273 273 274 274
276 276 276 276 276 277 277 277 276 276 276 276 277 277 277 277 277 277 278 278 278 277 277 277 277 277 276 276 276 275 274 274 273 273 273 273 273 273 272 272 273 273

ECMWFNIL_850_thetae_294.txt.gz
Theta_e
296 296 295 295 295 294 294 294 293 293 293 293 293 294 294 295 295 296 297 297 297 298 297 297 297 297 296 296 295 294 294 293 293 292 292 292 292 291 290 289 289 289
295 295 295 294 294 294 293 293 293 293 293 293 293 293 293 293 293 294 295 296 296 297 297 297 297 297 296 296 295 294 294 293 292 292 291 292 292 290 290 289 288 288
294 294 294 294 293 293 293 292 292 292 292 292 292 292 292 292 292 292 293 293 294 294 295 295 295 295 295 295 294 294 294 294 293 293 292 292 291 290 289 288 287 287
293 292 293 292 292 292 292 292 291 291 291 291 291 291 291 291 291 291 291 291 292 292 292 292 292 292 292 292 292 292 292 292 292 292 291 292 291 290 290 288 287 287
292 292 291 291 291 291 291 291 291 291 290 290 290 290 290 290 290 290 290 290 291 291 291 291 291 291 291 290 290 290 290 290 290 290 290 290 290 289 290 288 288 288
292 292 292 291 291 291 290 290 290 290 290 290 290 289 289 289 289 289 289 290 290 290 290 290 290 290 290 290 289 289 289 289 289 288 288 288 288 288 288 287 288 288
294 293 293 293 292 291 291 290 290 289 289 289 289 289 289 289 289 289 289 289 289 289 289 289 289 289 289 288 288 288 288 287 287 287 287 287 287 287 287 286 287 287
294 294 293 293 293 293 292 292 291 291 290 290 290 289 288 288 288 288 288 288 288 288 288 288 288 288 288 287 287 287 287 287 286 286 286 286 286 286 286 286 286 286
293 293 293 293 293 293 292 292 292 292 292 292 291 291 290 289 289 288 288 288 288 288 288 288 287 287 287 287 287 286 286 286 286 285 285 285 285 285 285 285 285 285
291 291 291 291 291 291 291 291 292 292 291 291 291 291 291 290 290 289 288 288 288 288 288 288 287 287 287 286 286 286 286 285 285 285 285 285 285 285 284 284 284 284
288 288 288 289 289 289 289 290 290 290 291 291 291 291 291 291 290 290 289 288 288 288 287 287 287 287 286 286 286 286 285 285 285 285 284 284 284 284 284 284 284 284
287 287 287 287 287 287 287 287 287 288 288 289 289 290 290 290 290 290 289 289 288 287 287 286 286 286 286 285 285 285 285 284 284 284 284 284 284 284 283 283 283 283
286 286 286 286 286 286 286 286 286 286 286 286 286 287 288 288 289 289 289 289 289 288 287 286 286 285 285 284 284 284 284 284 284 284 283 283 283 283 283 283 283 283
285 285 284 284 284 284 284 284 284 285 285 285 285 285 285 285 286 286 287 288 288 288 288 287 286 285 284 284 283 283 283 283 283 283 283 283 283 283 283 283 283 283
283 283 283 283 282 283 283 283 283 283 283 283 283 283 283 283 283 284 284 285 286 286 287 287 286 285 284 283 283 282 282 282 282 282 282 282 282 282 282 282 282 282
282 281 281 281 281 281 281 281 281 281 281 281 281 281 281 281 282 282 282 282 283 283 284 285 286 285 284 283 282 282 281 281 281 281 281 281 281 281 281 281 281 281
280 280 280 280 280 280 280 280 280 280 280 280 280 280 280 280 280 280 280 281 281 281 282 282 283 284 284 283 283 282 281 281 281 281 280 280 280 280 280 280 280 280
279 279 279 279 279 279 279 279 279 279 279 279 279 279 279 279 279 279 279 279 279 280 280 280 281 281 282 282 282 281 280 280 280 280 280 280 280 280 280 280 280 280
278 278 278 278 278 278 278 278 278 278 278 278 278 278 278 278 278 278 279 279 279 279 279 279 279 279 280 280 280 280 279 278 278 278 279 279 279 279 279 279 279 279
277 277 277 277 277 277 277 277 277 277 277 277 277 277 277 277 277 277 277 277 278 278 278 278 278 278 278 278 278 278 277 277 277 277 277 277 278 278 278 278 278 278
276 276 276 276 275 275 275 275 275 275 275 275 275 275 276 276 276 276 276 276 276 277 277 277 277 277 277 277 277 276 276 276 276 276 276 276 276 276 277 277 277 277
275 275 275 275 275 275 274 274 274 274 274 274 274 274 275 275 275 275 275 275 275 275 276 276 276 276 276 276 276 276 275 275 275 275 276 276 276 276 276 276 276 276
274 274 274 274 274 274 274 274 274 273 273 273 274 274 274 274 274 274 274 274 274 274 274 275 275 275 275 275 275 274 274 273 273 274 274 275 275 275 275 275 275 275
273 273 273 273 273 273 273 273 273 273 273 273 273 273 273 273 273 273 273 273 273 273 273 273 274 273 273 273 273 273 272 272 272 272 272 273 273 273 274 274 274 274
273 272 272 272 272 272 272 272 272 272 272 272 272 271 271 272 272 272 272 272 272 272 272 272 272 272 272 272 272 272 271 271 271 271 271 271 272 272 272 272 272 273
272 271 271 271 271 271 271 271 271 271 271 271 271 271 271 271 271 271 271 271 271 271 272 271 271 271 271 271 271 271 270 270 270 270 270 270 270 270 271 271 271 271

ECMWFNIL_850_thetae_300.txt.gz
Theta_e
299 298 297 296 296 295 295 294 294 294 293 293 292 292 291 291 291 290 290 290 291 291 291 291 291 291 291 291 292 292 292 292 292 291 291 290 290 289 289 290 290 290
298 298 297 296 295 295 295 294 294 293 293 292 292 291 291 290 290 290 290 290 290 290 290 290 290 289 290 290 290 291 291 291 291 291 290 290 290 289 289 289 289 290
297 296 296 296 295 295 295 294 294 293 293 292 292 291 290 290 290 290 290 289 290 290 290 290 289 289 289 289 290 290 290 290 290 290 290 290 289 289 289 289 289 289
296 296 296 296 295 295 295 294 294 293 292 292 291 291 290 290 290 290 290 290 290 290 289 289 289 289 289 289 289 289 289 289 289 289 290 290 290 290 289 289 289 289
296 296 296 295 295 295 294 294 293 293 292 292 291 291 291 291 291 290 290 290 290 290 290 289 289 289 288 288 288 288 288 288 288 288 288 289 289 289 289 289 288 288
296 295 295 294 294 294 293 293 293 292 292 292 292 291 291 291 291 291 291 290 290 290 290 290 289 289 289 289 289 289 288 288 288 287 287 287 287 287 287 287 287 287
294 294 293 293 293 293 292 292 292 292 292 292 292 291 291 291 291 291 291 291 291 290 290 290 289 289 289 289 289 289 289 288 288 287 287 287 286 286 286 286 286 286
293 293 293 292 292 292 292 291 291 291 291 291 291 291 291 291 291 290 290 290 290 290 290 290 290 290 289 289 289 289 289 288 288 287 287 287 286 286 286 285 285 285
291 291 290 290 290 289 289 289 289 289 288 288 288 288 289 289 289 289 289 289 289 289 289 289 290 290 290 290 289 289 289 289 288 288 287 287 286 286 285 285 285 285
288 288 287 287 287 286 286 286 286 286 286 286 286 286 287 287 287 287 287 287 287 287 288 288 288 288 289 289 289 289 289 289 288 288 288 288 287 287 286 285 285 285
286 285 285 285 285 285 285 285 285 286 285 285 285 285 285 285 285 284 284 284 285 285 285 285 285 286 286 287 287 288 288 288 288 288 288 287 287 287 286 286 285 285
286 286 286 286 285 285 285 285 285 285 285 285 284 284 284 283 283 283 283 283 283 282 283 283 283 283 283 284 284 285 285 286 286 286 287 287 286 286 286 285 285 285
287 287 287 286 285 284 284 284 284 284 283 283 283 283 283 282 282 282 282 282 282 281 281 281 281 281 281 282 282 282 282 283 283 284 284 285 285 285 285 284 284 284
286 286 285 284 283 283 282 282 282 281 281 281 281 281 281 281 281 280 280 280 280 280 280 280 280 280 280 280 280 280 280 281 281 281 282 282 283 283 283 283 283 283
283 283 282 282 281 281 280 280 280 280 280 280 280 280 280 280 279 279 279 279 279 279 279 279 279 279 279 279 279 279 279 279 279 280 280 280 281 281 282 282 282 282
281 281 281 280 280 279 279 279 279 279 279 279 279 279 279 279 279 279 278 278 278 278 278 278 278 278 278 278 278 278 278 278 278 278 278 279 279 279 280 280 280 280
280 279 279 279 278 278 278 278 278 278 278 278 278 278 278 278 278 278 278 278 278 278 278 278 278 277 277 277 277 277 277 277 277 277 277 277 278 278 278 278 278 278
278 278 278 277 277 277 277 277 277 277 277 277 277 277 277 277 277 277 277 277 277 277 277 277 277 277 277 277 276 276 276 276 276 276 276 276 277 277 277 277 277 276
277 277 276 276 276 276 276 276 276 276 276 276 276 276 276 276 276 276 276 276 276 276 276 276 276 276 276 276 276 276 276 275 275 275 275 276 276 276 276 276 276 276
276 276 276 276 275 276 276 276 276 276 275 275 275 275 275 275 275 275 275 275 275 275 275 275 275 275 275 275 275 275 275 275 275 275 275 275 275 275 275 275 275 275
275 275 275 275 275 275 275 275 275 275 275 275 275 274 275 275 275 275 274 274 274 274 274 274 274 274 274 274 274 274 274 274 274 274 274 274 274 274 274 274 274 274
274 274 274 274 274 274 274 274 274 274 274 274 274 274 274 274 273 273 273 273 273 273 273 273 273 273 273 273 273 273 273 273 274 274 274 274 274 274 273 273 273 273
273 274 274 274 273 273 273 273 273 273 273 273 273 273 273 273 273 272 272 272 272 272 272 272 273 272 272 272 272 272 272 272 273 273 273 273 273 273 273 273 273 272
273 273 273 273 273 272 272 272 272 272 272 272 272 272 272 272 272 272 272 272 272 272 272 272 272 272 271 272 272 271 271 271 272 272 272 272 272 272 272 272 272 272
272 272 272 272 272 272 272 272 272 271 271 271 271 271 271 271 271 271 271 271 271 271 271 271 271 271 271 271 271 271 270 270 270 271 271 271 271 271 272 272 272 271
272 272 272 271 271 271 271 271 271 271 271 270 270 270 270 270 270 270 270 270 270 270 270 270 270 270 270 270 269 269 269 269 269 269 269 270 270 270 271 271 271 271